TimeEET,TemperatureF,Dew PointF,Humidity,Sea Level PressureIn,VisibilityMPH,Wind Direction,Wind SpeedMPH,Gust SpeedMPH,PrecipitationIn,Events,Conditions,WindDirDegrees,DateUTC
12:00 AM,69.8,37.4,31,29.95,-9999.0,NW,4.6,-,N/A,,Clear,310,2012-11-17 22:00:00
1:00 AM,68.0,39.2,35,29.95,-9999.0,WNW,4.6,-,N/A,,Clear,300,2012-11-17 23:00:00
2:00 AM,67,40,26,29.92,6,WNW,6.9,,,,,300,2012-11-18 00:00:00
2:00 AM,68.0,41.0,37,29.92,-9999.0,WNW,6.9,-,N/A,,Clear,300,2012-11-18 00:00:00
3:00 AM,66.2,39.2,37,29.92,-9999.0,NW,5.8,-,N/A,,Clear,310,2012-11-18 01:00:00
4:00 AM,64.4,39.2,40,29.92,-9999.0,NW,5.8,-,N/A,,Clear,320,2012-11-18 02:00:00
6:00 AM,62.6,41.0,45,29.95,-9999.0,Calm,Calm,-,N/A,,Clear,0,2012-11-18 04:00:00
7:00 AM,62.6,41.0,45,29.98,-9999.0,Calm,Calm,-,N/A,,Clear,0,2012-11-18 05:00:00
8:00 AM,71,43,25,29.99,6,Calm,Calm,,,,,,2012-11-18 06:00:00
8:00 AM,71.6,42.8,35,30.01,-9999.0,Calm,Calm,-,N/A,,Clear,0,2012-11-18 06:00:00
9:00 AM,73.4,42.8,33,30.01,-9999.0,WNW,4.6,-,N/A,,Clear,300,2012-11-18 07:00:00
10:00 AM,78.8,44.6,30,30.01,-9999.0,WNW,4.6,-,N/A,,Clear,300,2012-11-18 08:00:00
11:00 AM,82.4,44.6,26,29.98,-9999.0,Calm,Calm,-,N/A,,Clear,0,2012-11-18 09:00:00
12:00 PM,84.2,42.8,23,29.98,-9999.0,West,4.6,-,N/A,,Clear,270,2012-11-18 10:00:00
1:00 PM,87.8,41.0,19,29.95,-9999.0,West,4.6,-,N/A,,Clear,270,2012-11-18 11:00:00
2:00 PM,88,38,9,29.90,6,WNW,4.6,,,,,300,2012-11-18 12:00:00
2:00 PM,87.8,37.4,17,29.92,-9999.0,WNW,4.6,-,N/A,,Clear,300,2012-11-18 12:00:00
3:00 PM,89.6,39.2,17,29.92,-9999.0,NW,6.9,-,N/A,,Clear,310,2012-11-18 13:00:00
4:00 PM,89.6,35.6,15,29.92,-9999.0,West,9.2,-,N/A,,Clear,270,2012-11-18 14:00:00
5:00 PM,86.0,35.6,17,29.92,-9999.0,West,11.5,-,N/A,,Clear,280,2012-11-18 15:00:00
6:00 PM,82.4,35.6,19,29.95,-9999.0,WNW,9.2,-,N/A,,Clear,300,2012-11-18 16:00:00
7:00 PM,78.8,37.4,23,29.95,-9999.0,NW,8.1,-,N/A,,Clear,310,2012-11-18 17:00:00
8:00 PM,77,36,13,29.96,6,WNW,8.1,,,,,290,2012-11-18 18:00:00
8:00 PM,77.0,35.6,22,29.98,-9999.0,WNW,8.1,-,N/A,,Clear,290,2012-11-18 18:00:00
9:00 PM,75.2,33.8,22,29.98,-9999.0,WNW,6.9,-,N/A,,Clear,290,2012-11-18 19:00:00
10:00 PM,73.4,33.8,23,30.01,-9999.0,NNW,6.9,-,N/A,,Clear,340,2012-11-18 20:00:00
11:00 PM,69.8,33.8,27,30.01,-9999.0,NW,5.8,-,N/A,,Clear,320,2012-11-18 21:00:00